Location: Broletto
(44.6000°N, 10.5833°E)
Time: 07:59:19
(UTC+00:00)

ATLAS 2AS CENTAUR R/B - Pass Details

Date: 18 April 2021
Orbit: 949 x 1263 km, 63.7° (Epoch: 02 May)

Event Time Altitude Azimuth Distance (km) Brightness Sun altitude
Rises 19:58:20 0° 238° (WSW) 4,199 6.1 -18.5°
Reaches altitude 10° 20:01:15 10° 244° (WSW) 3,243 5.5 -18.9°
Maximum altitude 20:08:52 49° 317° (NW) 1,581 4.0 -19.9°
Drops below altitude 10° 20:16:20 10° 31° (NNE) 3,180 5.3 -20.9°
Sets 20:19:11 0° 37° (NE) 4,112 5.8 -21.3°
